When you browse on this site, cookies collect data to enhance your experience and personalize the content and advertising you see.
Visit our Privacy Policy to learn more. By continuing to use the site, you agree to this use of cookies and data.
  • In Hungary
  • List of Countries
  • For 7 days
  • Water Temperature
  • Weather Map
  • News
  • Weather Widgets
  • user-avatar
    Login

    Hourly Weather Podelki

    Today, 21 August, Wednesday

    Time Temperature Precipitation Wind Pressure Humidity
    00:00 +19°C° 0 mm 1 mps 745 mmHg 94%
    01:00 +18°C° 0 mm 1 mps 745 mmHg 95%
    02:00 +16°C° 0 mm 0 mps 746 mmHg 96%
    03:00 +16°C° 0 mm 0 mps 746 mmHg 96%
    04:00 +16°C° 0 mm 0 mps 746 mmHg 96%
    05:00 +16°C° 0 mm 0 mps 746 mmHg 96%
    06:00 +17°C° 0 mm 0 mps 746 mmHg 94%
    07:00 +18°C° 0 mm 0 mps 746 mmHg 92%
    08:00 +19°C° 0 mm 0 mps 746 mmHg 89%
    09:00 +23°C° 0 mm 1 mps 746 mmHg 83%
    10:00 +24°C° 0 mm 1 mps 746 mmHg 78%
    11:00 +25°C° 0 mm 1 mps 746 mmHg 72%
    12:00 +26°C° 0 mm 1 mps 746 mmHg 70%
    13:00 +27°C° 0 mm 2 mps 745 mmHg 68%
    14:00 +27°C° 0 mm 2 mps 745 mmHg 65%
    15:00 +27°C° 0.4 mm 2 mps 745 mmHg 71%
    16:00 +26°C° 0.4 mm 2 mps 744 mmHg 76%
    17:00 +26°C° 0.4 mm 2 mps 744 mmHg 81%
    18:00 +24°C° 0.4 mm 2 mps 744 mmHg 85%
    19:00 +22°C° 0.4 mm 3 mps 743 mmHg 89%
    20:00 +21°C° 0.4 mm 3 mps 743 mmHg 92%
    21:00 +20°C° 0 mm 3 mps 743 mmHg 93%
    22:00 +20°C° 0 mm 3 mps 743 mmHg 94%
    23:00 +19°C° 0 mm 3 mps 742 mmHg 95%

    Tomorrow, 22 August, Thursday

    Time Temperature Precipitation Wind Pressure Humidity
    00:00 +19°C° 0 mm 3 mps 743 mmHg 95%
    01:00 +19°C° 0 mm 3 mps 743 mmHg 95%
    02:00 +19°C° 0 mm 3 mps 743 mmHg 95%
    03:00 +18°C° 0 mm 3 mps 743 mmHg 95%
    04:00 +18°C° 0 mm 2 mps 743 mmHg 96%
    05:00 +18°C° 0 mm 2 mps 743 mmHg 96%
    06:00 +18°C° 0.5 mm 3 mps 743 mmHg 95%
    07:00 +18°C° 0.5 mm 3 mps 743 mmHg 94%
    08:00 +19°C° 0.5 mm 4 mps 744 mmHg 93%
    09:00 +18°C° 0.2 mm 4 mps 744 mmHg 92%
    10:00 +17°C° 0.2 mm 4 mps 744 mmHg 91%
    11:00 +15°C° 0.2 mm 5 mps 744 mmHg 90%
    12:00 +17°C° 0 mm 4 mps 745 mmHg 85%
    13:00 +18°C° 0 mm 4 mps 745 mmHg 80%
    14:00 +19°C° 0 mm 4 mps 746 mmHg 75%
    15:00 +19°C° 0 mm 3 mps 746 mmHg 75%
    16:00 +20°C° 0 mm 3 mps 746 mmHg 75%
    17:00 +20°C° 0 mm 2 mps 746 mmHg 75%
    18:00 +18°C° 0 mm 2 mps 746 mmHg 80%
    19:00 +16°C° 0 mm 2 mps 747 mmHg 84%
    20:00 +15°C° 0 mm 2 mps 747 mmHg 88%
    21:00 +14°C° 0 mm 2 mps 747 mmHg 89%
    22:00 +14°C° 0 mm 2 mps 747 mmHg 90%
    23:00 +13°C° 0 mm 2 mps 748 mmHg 91%

    Day after tomorrow, 23 August, Friday

    Time Temperature Precipitation Wind Pressure Humidity
    00:00 +13°C° 0 mm 2 mps 748 mmHg 91%
    01:00 +12°C° 0 mm 2 mps 748 mmHg 91%
    02:00 +12°C° 0 mm 1 mps 748 mmHg 91%
    03:00 +11°C° 0 mm 1 mps 748 mmHg 91%
    04:00 +11°C° 0 mm 1 mps 748 mmHg 91%
    05:00 +11°C° 0 mm 1 mps 748 mmHg 91%
    06:00 +13°C° 0 mm 1 mps 748 mmHg 85%
    07:00 +15°C° 0 mm 1 mps 749 mmHg 79%
    08:00 +18°C° 0 mm 1 mps 749 mmHg 73%
    09:00 +19°C° 0 mm 1 mps 749 mmHg 68%
    10:00 +20°C° 0 mm 1 mps 749 mmHg 63%
    11:00 +21°C° 0 mm 1 mps 749 mmHg 58%
    12:00 +22°C° 0 mm 1 mps 749 mmHg 56%
    13:00 +22°C° 0 mm 1 mps 749 mmHg 55%
    14:00 +23°C° 0 mm 2 mps 748 mmHg 53%
    15:00 +23°C° 0 mm 1 mps 748 mmHg 58%
    16:00 +22°C° 0 mm 1 mps 748 mmHg 63%
    17:00 +22°C° 0 mm 1 mps 748 mmHg 67%
    18:00 +18°C° 0 mm 0 mps 748 mmHg 72%
    19:00 +16°C° 0 mm 0 mps 748 mmHg 77%
    20:00 +14°C° 0 mm 0 mps 748 mmHg 82%
    21:00 +13°C° 0 mm 0 mps 748 mmHg 84%
    22:00 +13°C° 0 mm 0 mps 748 mmHg 85%
    23:00 +13°C° 0 mm 1 mps 748 mmHg 86%

    24 August, Saturday

    Time Temperature Precipitation Wind Pressure Humidity
    00:00 +13°C° 0 mm 1 mps 748 mmHg 87%
    01:00 +13°C° 0 mm 1 mps 748 mmHg 88%
    02:00 +12°C° 0 mm 1 mps 748 mmHg 89%
    03:00 +12°C° 0 mm 1 mps 748 mmHg 90%
    04:00 +12°C° 0 mm 1 mps 748 mmHg 90%
    05:00 +12°C° 0 mm 1 mps 748 mmHg 90%
    06:00 +14°C° 0 mm 1 mps 748 mmHg 84%
    07:00 +16°C° 0 mm 1 mps 748 mmHg 79%
    08:00 +19°C° 0 mm 1 mps 748 mmHg 73%
    09:00 +19°C° 0 mm 2 mps 748 mmHg 69%
    10:00 +20°C° 0 mm 2 mps 748 mmHg 65%
    11:00 +21°C° 0 mm 2 mps 748 mmHg 61%
    12:00 +23°C° 0 mm 2 mps 747 mmHg 60%
    13:00 +22°C° 0 mm 3 mps 747 mmHg 59%
    14:00 +22°C° 0 mm 3 mps 747 mmHg 58%
    15:00 +23°C° 0 mm 2 mps 746 mmHg 62%
    16:00 +21°C° 0 mm 2 mps 746 mmHg 66%
    17:00 +21°C° 0 mm 2 mps 746 mmHg 70%
    18:00 +19°C° 0 mm 2 mps 746 mmHg 75%
    19:00 +17°C° 0 mm 2 mps 745 mmHg 80%
    20:00 +15°C° 0 mm 2 mps 745 mmHg 84%
    21:00 +15°C° 0 mm 2 mps 745 mmHg 87%
    22:00 +14°C° 0 mm 2 mps 745 mmHg 89%
    23:00 +14°C° 0 mm 2 mps 745 mmHg 92%

    25 August, Sunday

    Time Temperature Precipitation Wind Pressure Humidity
    00:00 +14°C° 0 mm 2 mps 745 mmHg 93%
    01:00 +13°C° 0 mm 2 mps 745 mmHg 94%
    02:00 +13°C° 0 mm 2 mps 745 mmHg 94%
    03:00 +13°C° 0 mm 2 mps 745 mmHg 95%
    04:00 +13°C° 0 mm 2 mps 745 mmHg 95%
    05:00 +12°C° 0 mm 2 mps 744 mmHg 95%
    06:00 +14°C° 0 mm 2 mps 745 mmHg 91%
    07:00 +16°C° 0 mm 3 mps 745 mmHg 86%
    08:00 +17°C° 0 mm 3 mps 745 mmHg 81%
    09:00 +18°C° 0.3 mm 3 mps 745 mmHg 79%
    10:00 +19°C° 0.3 mm 3 mps 745 mmHg 77%
    11:00 +20°C° 0.3 mm 3 mps 745 mmHg 75%
    12:00 +20°C° 0.4 mm 3 mps 745 mmHg 74%
    13:00 +21°C° 0.4 mm 3 mps 745 mmHg 73%
    14:00 +21°C° 0.4 mm 4 mps 745 mmHg 72%
    15:00 +20°C° 0 mm 3 mps 745 mmHg 72%
    16:00 +20°C° 0 mm 3 mps 745 mmHg 72%
    17:00 +20°C° 0 mm 2 mps 746 mmHg 71%
    18:00 +18°C° 0 mm 2 mps 746 mmHg 76%
    19:00 +16°C° 0 mm 2 mps 746 mmHg 80%
    20:00 +14°C° 0 mm 2 mps 746 mmHg 85%
    21:00 +14°C° 0 mm 2 mps 747 mmHg 88%
    22:00 +13°C° 0 mm 2 mps 747 mmHg 90%
    23:00 +12°C° 0 mm 2 mps 748 mmHg 93%

    26 August, Monday

    Time Temperature Precipitation Wind Pressure Humidity
    00:00 +12°C° 0 mm 2 mps 748 mmHg 94%
    01:00 +10°C° 0 mm 2 mps 748 mmHg 94%
    02:00 +11°C° 0 mm 1 mps 748 mmHg 94%
    03:00 +10°C° 0 mm 1 mps 748 mmHg 95%
    04:00 +10°C° 0 mm 1 mps 749 mmHg 95%
    05:00 +10°C° 0 mm 1 mps 749 mmHg 96%
    06:00 +12°C° 0 mm 1 mps 749 mmHg 90%
    07:00 +14°C° 0 mm 1 mps 749 mmHg 84%
    08:00 +15°C° 0 mm 1 mps 749 mmHg 79%
    09:00 +18°C° 0 mm 1 mps 749 mmHg 72%
    10:00 +19°C° 0 mm 1 mps 749 mmHg 66%
    11:00 +20°C° 0 mm 1 mps 749 mmHg 60%
    12:00 +21°C° 0 mm 1 mps 749 mmHg 57%
    13:00 +21°C° 0 mm 1 mps 749 mmHg 54%
    14:00 +22°C° 0 mm 1 mps 749 mmHg 51%
    15:00 +22°C° 0 mm 1 mps 748 mmHg 55%
    16:00 +21°C° 0 mm 1 mps 748 mmHg 60%
    17:00 +21°C° 0 mm 1 mps 748 mmHg 64%
    18:00 +19°C° 0 mm 1 mps 747 mmHg 70%
    19:00 +16°C° 0 mm 1 mps 747 mmHg 75%
    20:00 +14°C° 0 mm 2 mps 747 mmHg 81%
    21:00 +13°C° 0 mm 2 mps 747 mmHg 83%
    22:00 +12°C° 0 mm 2 mps 747 mmHg 84%
    23:00 +12°C° 0 mm 2 mps 747 mmHg 85%
    Show more